This is the latest recevied weather packets stored in our database for station/object M3YFM-13. If no packets are shown the sender has not sent any weather packets the latest 1 day(s).
| Time | Temp. | Humidity | Pressure | Rain* | Wind** | Luminosity | Snow |
|---|---|---|---|---|---|---|---|
| 1778072096 | 14.44° C | 41% | - | 0 mm | - | - | - |
| 1778071195 | 14.44° C | 41% | - | 0 mm | - | - | - |
| 1778070294 | 13.89° C | 44% | - | 0 mm | - | - | - |
| 1778069994 | 13.89° C | 45% | - | 0 mm | - | - | - |
| 1778068191 | 13.89° C | 45% | - | 0 mm | - | - | - |
| 1778066990 | 12.78° C | 49% | - | 0 mm | - | - | - |
| 1778066089 | 11.67° C | 50% | - | 0 mm | - | - | - |
| 1778065188 | 12.22° C | 50% | - | 0 mm | - | - | - |
| 1778064888 | 11.67° C | 51% | - | 0 mm | - | - | - |
| 1778063086 | 11.67° C | 50% | - | 0 mm | - | - | - |
| 1778062786 | 11.67° C | 51% | - | 0 mm | - | - | - |
| 1778062185 | 11.11° C | 54% | - | 0 mm | - | - | - |
| 1778061885 | 11.11° C | 56% | - | 0 mm | - | - | - |
| 1778061585 | 10.56° C | 57% | - | 0 mm | - | - | - |
| 1778060684 | 10.56° C | 59% | - | 0 mm | - | - | - |
| 1778059783 | 11.11° C | 58% | - | 0 mm | - | - | - |
| 1778059483 | 11.11° C | 59% | - | 0 mm | - | - | - |
| 1778059182 | 11.67° C | 60% | - | 0 mm | - | - | - |
| 1778058882 | 10.56° C | 60% | - | 0 mm | - | - | - |
| 1778058582 | 10.56° C | 61% | - | 0 mm | - | - | - |
| 1778057681 | 10° C | 62% | - | 0 mm | - | - | - |
| 1778057381 | 10° C | 62% | - | 0 mm | - | - | - |
| 1778055279 | 10° C | 64% | - | 0 mm | - | - | - |
| 1778054677 | 8.89° C | 65% | - | 0 mm | - | - | - |
| 1778054377 | 9.44° C | 65% | - | 0 mm | - | - | - |
* Rain since midnight (hover to see other rain measurements)
** Current wind speed in m/s (hover to see current wind gust speed)